| time (UTC) | temp C | wind direction | speed KPH | gust KPH | rain 1hr cm | rain 24hr cm | rain mn cm | humidity % | barometer mb |
| 20260510194007 | 30 | 309 | 0.0 | 3.2 | 0.00 | 0.13 | 0.00 | 65 | 1016.1 |
| 20260510193503 | 30 | 21 | 1.6 | 3.2 | 0.00 | 0.13 | 0.00 | 65 | 1016.0 |
| 20260510193012 | 30 | 107 | 1.6 | 3.2 | 0.00 | 0.13 | 0.00 | 64 | 1016.3 |
| 20260510192503 | 31 | 240 | 1.6 | 3.2 | 0.00 | 0.13 | 0.00 | 64 | 1016.3 |
| 20260510192007 | 31 | 236 | 0.0 | 3.2 | 0.00 | 0.13 | 0.00 | 65 | 1016.5 |
| 20260510191535 | 31 | 36 | 1.6 | 3.2 | 0.00 | 0.13 | 0.00 | 64 | 1016.3 |
| 20260510191005 | 32 | 261 | 1.6 | 3.2 | 0.00 | 0.13 | 0.00 | 62 | 1016.1 |
| 20260510190508 | 32 | 248 | 0.0 | 6.4 | 0.00 | 0.13 | 0.00 | 62 | 1016.1 |
| 20260510190031 | 33 | 101 | 1.6 | 6.4 | 0.00 | 0.13 | 0.00 | 60 | 1016.0 |
| 20260510185506 | 34 | 78 | 1.6 | 4.8 | 0.00 | 0.13 | 0.00 | 58 | 1016.2 |
| 20260510185007 | 35 | 76 | 1.6 | 11.3 | 0.00 | 0.13 | 0.00 | 50 | 1015.9 |
| 20260510184524 | 35 | 275 | 1.6 | 11.3 | 0.00 | 0.13 | 0.00 | 48 | 1015.7 |
| 20260510184008 | 35 | 124 | 1.6 | 9.7 | 0.00 | 0.13 | 0.00 | 46 | 1015.7 |
| 20260510183512 | 35 | 82 | 1.6 | 9.7 | 0.00 | 0.13 | 0.00 | 45 | 1015.6 |
| 20260510183028 | 35 | 133 | 3.2 | 9.7 | 0.00 | 0.13 | 0.00 | 47 | 1015.7 |
| 20260510182510 | 35 | 290 | 1.6 | 6.4 | 0.00 | 0.13 | 0.00 | 47 | 1015.7 |
| 20260510182007 | 35 | 123 | 1.6 | 9.7 | 0.00 | 0.13 | 0.00 | 47 | 1015.6 |
| 20260510181527 | 35 | 130 | 1.6 | 9.7 | 0.00 | 0.13 | 0.00 | 48 | 1015.6 |
| 20260510181004 | 35 | 121 | 1.6 | 9.7 | 0.00 | 0.13 | 0.00 | 47 | 1015.6 |
| 20260510180504 | 35 | 103 | 1.6 | 9.7 | 0.00 | 0.13 | 0.00 | 50 | 1015.6 |
| 20260510180022 | 35 | 333 | 3.2 | 8.0 | 0.00 | 0.13 | 0.00 | 48 | 1016.0 |
| 20260510175508 | 35 | 223 | 3.2 | 11.3 | 0.00 | 0.13 | 0.00 | 49 | 1016.1 |
| 20260510175010 | 35 | 273 | 4.8 | 11.3 | 0.00 | 0.13 | 0.00 | 49 | 1016.2 |
| 20260510174523 | 35 | 255 | 3.2 | 9.7 | 0.00 | 0.13 | 0.00 | 49 | 1016.2 |
| 20260510174010 | 35 | 286 | 3.2 | 8.0 | 0.00 | 0.13 | 0.00 | 49 | 1016.2 |
| 20260510173511 | 34 | 85 | 1.6 | 4.8 | 0.00 | 0.13 | 0.00 | 52 | 1016.3 |
| 20260510173028 | 34 | 106 | 1.6 | 4.8 | 0.00 | 0.13 | 0.00 | 53 | 1016.4 |
| 20260510172511 | 33 | 119 | 1.6 | 6.4 | 0.00 | 0.13 | 0.00 | 54 | 1016.5 |
| 20260510172011 | 33 | 307 | 3.2 | 8.0 | 0.00 | 0.13 | 0.00 | 52 | 1016.5 |
| 20260510171538 | 33 | 138 | 3.2 | 9.7 | 0.00 | 0.13 | 0.00 | 52 | 1016.5 |
| 20260510171008 | 33 | 107 | 1.6 | 11.3 | 0.00 | 0.13 | 0.00 | 54 | 1016.7 |
| 20260510170503 | 32 | 137 | 3.2 | 11.3 | 0.00 | 0.13 | 0.00 | 54 | 1016.7 |
| 20260510170020 | 32 | 113 | 1.6 | 4.8 | 0.00 | 0.13 | 0.00 | 56 | 1016.9 |
| 20260510165507 | 32 | 119 | 3.2 | 8.0 | 0.00 | 0.13 | 0.00 | 56 | 1017.0 |
| 20260510165007 | 32 | 119 | 3.2 | 8.0 | 0.00 | 0.13 | 0.00 | 57 | 1017.0 |
| 20260510164521 | 32 | 298 | 1.6 | 6.4 | 0.00 | 0.13 | 0.00 | 57 | 1017.3 |
| 20260510164008 | 32 | 267 | 1.6 | 4.8 | 0.00 | 0.13 | 0.00 | 58 | 1017.3 |
| 20260510163507 | 32 | 295 | 1.6 | 4.8 | 0.00 | 0.13 | 0.00 | 58 | 1017.4 |
| 20260510163027 | 32 | 164 | 1.6 | 9.7 | 0.00 | 0.13 | 0.00 | 58 | 1017.4 |
| 20260510162510 | 31 | 292 | 1.6 | 9.7 | 0.00 | 0.13 | 0.00 | 60 | 1017.5 |
| 20260510162010 | 31 | 202 | 1.6 | 6.4 | 0.00 | 0.13 | 0.00 | 62 | 1017.5 |
| 20260510161526 | 31 | 40 | 1.6 | 8.0 | 0.00 | 0.13 | 0.00 | 62 | 1017.4 |
| 20260510161011 | 31 | 101 | 1.6 | 8.0 | 0.00 | 0.13 | 0.00 | 61 | 1017.5 |
| 20260510160512 | 31 | 309 | 1.6 | 4.8 | 0.00 | 0.13 | 0.00 | 62 | 1017.5 |
| 20260510160034 | 30 | 101 | 0.0 | 3.2 | 0.00 | 0.13 | 0.00 | 65 | 1017.5 |
| 20260510155505 | 30 | 168 | 1.6 | 4.8 | 0.00 | 0.13 | 0.00 | 63 | 1017.5 |
| 20260510155004 | 30 | 134 | 1.6 | 6.4 | 0.00 | 0.13 | 0.00 | 63 | 1017.6 |
| 20260510154520 | 30 | 106 | 1.6 | 6.4 | 0.00 | 0.13 | 0.00 | 64 | 1017.6 |
| 20260510154008 | 30 | 229 | 1.6 | 4.8 | 0.00 | 0.13 | 0.00 | 65 | 1017.5 |
| 20260510153507 | 30 | 125 | 1.6 | 4.8 | 0.00 | 0.13 | 0.00 | 67 | 1017.5 |
| 20260510153038 | 29 | 120 | 1.6 | 4.8 | 0.00 | 0.13 | 0.00 | 69 | 1017.5 |
| 20260510152507 | 29 | 360 | 1.6 | 4.8 | 0.00 | 0.13 | 0.00 | 69 | 1017.6 |
| 20260510152013 | 28 | 57 | 0.0 | 3.2 | 0.00 | 0.13 | 0.00 | 68 | 1017.6 |
| 20260510151528 | 28 | 343 | 0.0 | 6.4 | 0.00 | 0.13 | 0.00 | 68 | 1017.6 |
| 20260510151009 | 28 | 228 | 1.6 | 6.4 | 0.00 | 0.13 | 0.00 | 68 | 1017.6 |
| 20260510150508 | 28 | 135 | 1.6 | 6.4 | 0.00 | 0.13 | 0.00 | 70 | 1017.5 |
| 20260510150030 | 28 | 344 | 1.6 | 6.4 | 0.00 | 0.13 | 0.00 | 69 | 1017.6 |
| 20260510145506 | 28 | 105 | 1.6 | 6.4 | 0.00 | 0.13 | 0.00 | 72 | 1017.6 |
| 20260510145006 | 28 | 247 | 1.6 | 6.4 | 0.00 | 0.13 | 0.00 | 1017.4 | |
| 20260510144523 | 27 | 313 | 1.6 | 6.4 | 0.00 | 0.13 | 0.00 | 74 | 1017.4 |
| 20260510144007 | 27 | 117 | 0.0 | 4.8 | 0.00 | 0.13 | 0.00 | 74 | 1017.4 |
| 20260510143507 | 27 | 101 | 1.6 | 9.7 | 0.00 | 0.13 | 0.00 | 76 | 1017.3 |
| 20260510143024 | 27 | 112 | 1.6 | 9.7 | 0.00 | 0.13 | 0.00 | 76 | 1017.4 |
| 20260510142504 | 27 | 246 | 1.6 | 9.7 | 0.00 | 0.13 | 0.00 | 75 | 1017.3 |
| 20260510142004 | 27 | 297 | 3.2 | 6.4 | 0.00 | 0.13 | 0.00 | 75 | 1017.3 |
| 20260510141508 | 26 | 193 | 1.6 | 4.8 | 0.00 | 0.13 | 0.00 | 76 | 1017.3 |
| 20260510141004 | 26 | 300 | 1.6 | 4.8 | 0.00 | 0.13 | 0.00 | 79 | 1017.4 |
| 20260510140503 | 26 | 352 | 1.6 | 4.8 | 0.00 | 0.13 | 0.00 | 82 | 1017.3 |
| 20260510140011 | 26 | 139 | 1.6 | 4.8 | 0.00 | 0.13 | 0.00 | 83 | 1017.2 |
| 20260510135504 | 25 | 232 | 0.0 | 3.2 | 0.00 | 0.13 | 0.00 | 84 | 1017.1 |
| 20260510135006 | 25 | 248 | 0.0 | 3.2 | 0.00 | 0.13 | 0.00 | 84 | 1017.0 |
| 20260510134516 | 25 | 173 | 0.0 | 3.2 | 0.00 | 0.13 | 0.00 | 84 | 1017.0 |
| 20260510134007 | 25 | 84 | 0.0 | 3.2 | 0.00 | 0.13 | 0.00 | 86 | 1016.8 |
| 20260510133506 | 25 | 60 | 0.0 | 3.2 | 0.00 | 0.13 | 0.00 | 86 | 1016.8 |
| 20260510133024 | 25 | 198 | 0.0 | 3.2 | 0.00 | 0.13 | 0.00 | 87 | 1016.7 |
| 20260510132508 | 25 | 205 | 0.0 | 3.2 | 0.00 | 0.13 | 0.00 | 86 | 1016.8 |
| 20260510132009 | 25 | 234 | 0.0 | 3.2 | 0.00 | 0.13 | 0.00 | 87 | 1016.7 |
| 20260510131526 | 24 | 139 | 0.0 | 3.2 | 0.00 | 0.13 | 0.00 | 87 | 1016.7 |
| 20260510131003 | 24 | 163 | 0.0 | 3.2 | 0.00 | 0.13 | 0.00 | 89 | 1016.7 |
| 20260510130504 | 24 | 240 | 0.0 | 3.2 | 0.00 | 0.13 | 0.00 | 88 | 1016.7 |
| 20260510130008 | 24 | 240 | 0.0 | 3.2 | 0.00 | 0.13 | 0.00 | 88 | 1016.6 |
| 20260510125503 | 23 | 240 | 0.0 | 3.2 | 0.00 | 0.13 | 0.00 | 89 | 1016.8 |
| 20260510125009 | 23 | 242 | 0.0 | 3.2 | 0.00 | 0.13 | 0.00 | 89 | 1016.7 |
| 20260510124516 | 23 | 242 | 0.0 | 3.2 | 0.00 | 0.13 | 0.00 | 89 | 1016.8 |
| 20260510124007 | 23 | 242 | 0.0 | 3.2 | 0.00 | 0.13 | 0.00 | 89 | 1016.7 |
| 20260510123508 | 23 | 242 | 0.0 | 3.2 | 0.00 | 0.13 | 0.00 | 90 | 1016.7 |
| 20260510123022 | 23 | 242 | 0.0 | 3.2 | 0.00 | 0.13 | 0.00 | 90 | 1016.7 |
| 20260510122505 | 23 | 242 | 0.0 | 3.2 | 0.00 | 0.13 | 0.00 | 90 | 1016.7 |
| 20260510122010 | 23 | 242 | 0.0 | 1.6 | 0.00 | 0.13 | 0.00 | 91 | 1016.6 |
| 20260510121525 | 23 | 242 | 0.0 | 0.0 | 0.00 | 0.13 | 0.00 | 90 | 1016.5 |
| 20260510121009 | 23 | 242 | 0.0 | 0.0 | 0.00 | 0.13 | 0.00 | 90 | 1016.4 |
| 20260510120512 | 22 | 242 | 0.0 | 0.0 | 0.00 | 0.13 | 0.00 | 90 | 1016.3 |
| 20260510120025 | 22 | 242 | 0.0 | 0.0 | 0.00 | 0.13 | 0.00 | 90 | 1016.3 |
| 20260510115503 | 22 | 242 | 0.0 | 0.0 | 0.00 | 0.13 | 0.00 | 90 | 1016.2 |
| 20260510115004 | 22 | 242 | 0.0 | 0.0 | 0.00 | 0.13 | 0.00 | 90 | 1016.1 |
| 20260510114518 | 22 | 242 | 0.0 | 0.0 | 0.00 | 0.13 | 0.00 | 90 | 1016.2 |
| 20260510114008 | 22 | 242 | 0.0 | 0.0 | 0.00 | 0.13 | 0.00 | 89 | 1016.0 |
| 20260510113507 | 22 | 242 | 0.0 | 0.0 | 0.00 | 0.13 | 0.00 | 89 | 1015.8 |
| 20260510113021 | 22 | 242 | 0.0 | 0.0 | 0.00 | 0.13 | 0.00 | 89 | 1015.7 |
| 20260510112507 | 22 | 242 | 0.0 | 0.0 | 0.00 | 0.13 | 0.00 | 89 | 1015.5 |
| 20260510112009 | 22 | 242 | 0.0 | 0.0 | 0.00 | 0.13 | 0.00 | 89 | 1015.3 |
| 20260510111522 | 22 | 242 | 0.0 | 0.0 | 0.00 | 0.13 | 0.00 | 89 | 1015.3 |
| 20260510111010 | 22 | 242 | 0.0 | 0.0 | 0.00 | 0.13 | 0.00 | 88 | 1015.1 |
| 20260510110507 | 22 | 242 | 0.0 | 0.0 | 0.00 | 0.13 | 0.00 | 88 | 1015.1 |
| 20260510110037 | 22 | 242 | 0.0 | 0.0 | 0.00 | 0.13 | 0.00 | 88 | 1015.2 |
| 20260510105507 | 22 | 242 | 0.0 | 0.0 | 0.00 | 0.13 | 0.00 | 88 | 1015.1 |
| 20260510105009 | 22 | 242 | 0.0 | 0.0 | 0.00 | 0.13 | 0.00 | 88 | 1015.0 |
| 20260510104525 | 22 | 242 | 0.0 | 0.0 | 0.00 | 0.13 | 0.00 | 88 | 1015.0 |
| 20260510104006 | 22 | 242 | 0.0 | 0.0 | 0.00 | 0.13 | 0.00 | 88 | 1014.9 |
| 20260510103504 | 22 | 242 | 0.0 | 0.0 | 0.00 | 0.13 | 0.00 | 88 | 1014.8 |
| 20260510103016 | 22 | 242 | 0.0 | 0.0 | 0.00 | 0.13 | 0.00 | 88 | 1014.7 |
| 20260510102506 | 22 | 242 | 0.0 | 0.0 | 0.00 | 0.13 | 0.00 | 87 | 1014.6 |
| 20260510102007 | 22 | 242 | 0.0 | 0.0 | 0.00 | 0.13 | 0.00 | 87 | 1014.5 |
| 20260510101522 | 22 | 242 | 0.0 | 0.0 | 0.00 | 0.13 | 0.00 | 87 | 1014.5 |
| 20260510101009 | 22 | 242 | 0.0 | 0.0 | 0.00 | 0.13 | 0.00 | 87 | 1014.5 |
| 20260510100507 | 22 | 242 | 0.0 | 0.0 | 0.00 | 0.13 | 0.00 | 88 | 1014.4 |
| 20260510100031 | 22 | 242 | 0.0 | 0.0 | 0.00 | 0.13 | 0.00 | 88 | 1014.4 |
| 20260510095507 | 22 | 242 | 0.0 | 0.0 | 0.00 | 0.13 | 0.00 | 88 | 1014.4 |
| 20260510095007 | 22 | 242 | 0.0 | 0.0 | 0.00 | 0.13 | 0.00 | 88 | 1014.4 |
| 20260510094535 | 22 | 242 | 0.0 | 0.0 | 0.00 | 0.13 | 0.00 | 88 | 1014.4 |
| 20260510094009 | 22 | 242 | 0.0 | 0.0 | 0.00 | 0.13 | 0.00 | 88 | 1014.3 |
| 20260510093507 | 22 | 242 | 0.0 | 0.0 | 0.00 | 0.13 | 0.00 | 88 | 1014.3 |
| 20260510093014 | 22 | 242 | 0.0 | 0.0 | 0.00 | 0.13 | 0.00 | 88 | 1014.3 |
| 20260510092507 | 22 | 242 | 0.0 | 0.0 | 0.00 | 0.13 | 0.00 | 88 | 1014.1 |
| 20260510092009 | 22 | 242 | 0.0 | 0.0 | 0.00 | 0.13 | 0.00 | 88 | 1014.0 |
| 20260510091519 | 22 | 242 | 0.0 | 0.0 | 0.00 | 0.13 | 0.00 | 88 | 1014.1 |
| 20260510091007 | 22 | 242 | 0.0 | 0.0 | 0.00 | 0.13 | 0.00 | 88 | 1014.1 |
| 20260510090508 | 22 | 242 | 0.0 | 1.6 | 0.00 | 0.13 | 0.00 | 88 | 1014.1 |
| 20260510090025 | 22 | 242 | 0.0 | 3.2 | 0.00 | 0.13 | 0.00 | 88 | 1014.0 |
| 20260510085509 | 22 | 242 | 0.0 | 3.2 | 0.00 | 0.13 | 0.00 | 88 | 1014.0 |
| 20260510085008 | 22 | 228 | 0.0 | 3.2 | 0.00 | 0.13 | 0.00 | 88 | 1013.8 |
| 20260510084524 | 22 | 228 | 0.0 | 3.2 | 0.00 | 0.13 | 0.00 | 88 | 1013.8 |
| 20260510084008 | 22 | 246 | 0.0 | 3.2 | 0.00 | 0.13 | 0.00 | 88 | 1013.8 |
| 20260510083510 | 22 | 246 | 0.0 | 3.2 | 0.00 | 0.13 | 0.00 | 88 | 1013.8 |
| 20260510083026 | 22 | 246 | 1.6 | 6.4 | 0.00 | 0.13 | 0.00 | 88 | 1013.7 |
| 20260510082507 | 22 | 232 | 1.6 | 6.4 | 0.00 | 0.13 | 0.00 | 88 | 1013.7 |
| 20260510082014 | 22 | 165 | 0.0 | 3.2 | 0.00 | 0.13 | 0.00 | 88 | 1013.7 |
| 20260510081524 | 22 | 219 | 0.0 | 3.2 | 0.00 | 0.13 | 0.00 | 88 | 1013.8 |
| 20260510081005 | 22 | 213 | 0.0 | 3.2 | 0.00 | 0.13 | 0.00 | 88 | 1013.8 |
| 20260510080512 | 22 | 219 | 0.0 | 3.2 | 0.00 | 0.13 | 0.00 | 88 | 1013.9 |
| 20260510080038 | 22 | 235 | 0.0 | 3.2 | 0.00 | 0.13 | 0.00 | 88 | 1014.0 |
| 20260510075507 | 22 | 267 | 0.0 | 3.2 | 0.00 | 0.13 | 0.00 | 88 | 1014.0 |
| 20260510075010 | 22 | 267 | 0.0 | 3.2 | 0.00 | 0.13 | 0.00 | 88 | 1014.1 |
| 20260510074527 | 22 | 256 | 0.0 | 3.2 | 0.00 | 0.13 | 0.00 | 88 | 1014.1 |
| 20260510074009 | 22 | 256 | 0.0 | 3.2 | 0.00 | 0.13 | 0.00 | 88 | 1014.0 |
| 20260510073510 | 22 | 256 | 0.0 | 3.2 | 0.00 | 0.13 | 0.00 | 88 | 1014.1 |
| 20260510073039 | 22 | 256 | 0.0 | 3.2 | 0.00 | 0.13 | 0.00 | 88 | 1014.1 |
| 20260510072509 | 22 | 256 | 0.0 | 3.2 | 0.00 | 0.13 | 0.00 | 88 | 1014.1 |
| 20260510072008 | 22 | 256 | 0.0 | 3.2 | 0.00 | 0.13 | 0.00 | 88 | 1014.1 |
| 20260510071526 | 22 | 306 | 0.0 | 1.6 | 0.00 | 0.13 | 0.00 | 88 | 1014.1 |
| 20260510071009 | 22 | 85 | 0.0 | 3.2 | 0.00 | 0.13 | 0.00 | 87 | 1014.2 |
| 20260510070510 | 22 | 85 | 0.0 | 3.2 | 0.00 | 0.13 | 0.00 | 87 | 1014.1 |
| 20260510070018 | 22 | 85 | 0.0 | 3.2 | 0.00 | 0.13 | 0.00 | 87 | 1014.2 |
| 20260510065511 | 22 | 85 | 0.0 | 0.0 | 0.00 | 0.13 | 0.00 | 87 | 1014.3 |
| 20260510065010 | 22 | 85 | 0.0 | 0.0 | 0.00 | 0.13 | 0.00 | 87 | 1014.5 |
| 20260510064524 | 22 | 85 | 0.0 | 0.0 | 0.00 | 0.13 | 0.00 | 87 | 1014.6 |
| 20260510064006 | 22 | 85 | 0.0 | 0.0 | 0.00 | 0.13 | 0.00 | 87 | 1014.7 |
| 20260510063510 | 22 | 85 | 0.0 | 3.2 | 0.00 | 0.13 | 0.00 | 87 | 1014.6 |
| 20260510063034 | 22 | 85 | 0.0 | 3.2 | 0.00 | 0.13 | 0.00 | 87 | 1014.7 |
| 20260510062511 | 22 | 85 | 0.0 | 3.2 | 0.00 | 0.13 | 0.00 | 86 | 1014.6 |
| 20260510062007 | 22 | 85 | 0.0 | 3.2 | 0.00 | 0.13 | 0.00 | 86 | 1014.6 |
| 20260510061531 | 23 | 85 | 0.0 | 3.2 | 0.00 | 0.13 | 0.00 | 86 | 1014.7 |
| 20260510061011 | 23 | 85 | 0.0 | 0.0 | 0.00 | 0.13 | 0.00 | 86 | 1014.9 |
| 20260510060508 | 23 | 85 | 0.0 | 0.0 | 0.00 | 0.13 | 0.00 | 86 | 1015.0 |
| 20260510060037 | 23 | 85 | 0.0 | 0.0 | 0.00 | 0.13 | 0.00 | 86 | 1015.1 |
| 20260510055508 | 23 | 85 | 0.0 | 3.2 | 0.00 | 0.13 | 0.00 | 86 | 1015.0 |
| 20260510055006 | 23 | 85 | 0.0 | 3.2 | 0.00 | 0.13 | 0.00 | 86 | 1015.1 |
| 20260510054524 | 23 | 85 | 0.0 | 3.2 | 0.00 | 0.13 | 0.00 | 86 | 1015.2 |
| 20260510054007 | 23 | 85 | 0.0 | 3.2 | 0.00 | 0.13 | 0.00 | 86 | 1015.2 |
| 20260510053510 | 23 | 85 | 0.0 | 3.2 | 0.00 | 0.13 | 0.00 | 86 | 1015.2 |
| 20260510053004 | 23 | 85 | 0.0 | 3.2 | 0.00 | 0.13 | 0.00 | 86 | 1015.3 |
| 20260510052504 | 23 | 85 | 0.0 | 1.6 | 0.00 | 0.13 | 0.00 | 86 | 1015.2 |
| 20260510052005 | 23 | 85 | 0.0 | 0.0 | 0.00 | 0.13 | 0.00 | 87 | 1015.2 |
| 20260510051510 | 23 | 85 | 0.0 | 0.0 | 0.00 | 0.13 | 0.00 | 87 | 1015.3 |
| 20260510051006 | 23 | 86 | 0.0 | 0.0 | 0.00 | 0.13 | 0.00 | 87 | 1015.3 |
| 20260510050504 | 23 | 86 | 0.0 | 0.0 | 0.00 | 0.13 | 0.00 | 87 | 1015.3 |
| 20260510050014 | 23 | 86 | 0.0 | 0.0 | 0.00 | 0.13 | 0.00 | 87 | 1015.4 |
| 20260510045504 | 23 | 86 | 0.0 | 0.0 | 0.00 | 0.13 | 0.00 | 87 | 1015.4 |
| 20260510045008 | 23 | 86 | 0.0 | 0.0 | 0.00 | 0.13 | 0.00 | 87 | 1015.5 |
| 20260510044524 | 23 | 86 | 0.0 | 0.0 | 0.00 | 0.13 | 0.00 | 87 | 1015.5 |
| 20260510044009 | 23 | 86 | 0.0 | 3.2 | 0.00 | 0.13 | 0.00 | 87 | 1015.6 |
| 20260510043511 | 23 | 86 | 0.0 | 3.2 | 0.00 | 0.13 | 0.00 | 86 | 1015.6 |
| 20260510043025 | 23 | 86 | 0.0 | 0.0 | 0.00 | 0.13 | 0.00 | 86 | 1015.6 |
| 20260510042512 | 23 | 86 | 0.0 | 0.0 | 0.00 | 0.13 | 0.00 | 86 | 1015.5 |
| 20260510042010 | 23 | 86 | 0.0 | 0.0 | 0.00 | 0.13 | 0.00 | 86 | 1015.5 |
| 20260510041511 | 23 | 86 | 0.0 | 0.0 | 0.00 | 0.13 | 0.00 | 86 | 1015.6 |
| 20260510041003 | 23 | 86 | 0.0 | 0.0 | 0.00 | 0.13 | 0.00 | 86 | 1015.6 |
| 20260510040504 | 23 | 86 | 0.0 | 0.0 | 0.00 | 0.13 | 0.00 | 86 | 1015.9 |
| 20260510040014 | 23 | 86 | 0.0 | 0.0 | 0.00 | 0.13 | 0.00 | 86 | 1015.9 |
| 20260510035505 | 23 | 86 | 0.0 | 0.0 | 0.00 | 0.13 | 0.13 | 85 | 1015.9 |
| 20260510035007 | 23 | 86 | 0.0 | 0.0 | 0.00 | 0.13 | 0.13 | 85 | 1015.9 |
| 20260510034518 | 23 | 86 | 0.0 | 0.0 | 0.00 | 0.13 | 0.13 | 85 | 1015.9 |
| 20260510034010 | 23 | 86 | 0.0 | 0.0 | 0.00 | 0.13 | 0.13 | 85 | 1015.9 |
| 20260510033510 | 23 | 86 | 0.0 | 0.0 | 0.00 | 0.13 | 0.13 | 85 | 1016.1 |
| 20260510033027 | 23 | 86 | 0.0 | 0.0 | 0.00 | 0.13 | 0.13 | 85 | 1016.0 |
| 20260510032508 | 23 | 86 | 0.0 | 0.0 | 0.00 | 0.13 | 0.13 | 85 | 1015.9 |
| 20260510032010 | 23 | 86 | 0.0 | 0.0 | 0.00 | 0.13 | 0.13 | 85 | 1015.8 |
| 20260510031530 | 23 | 86 | 0.0 | 0.0 | 0.00 | 0.13 | 0.13 | 85 | 1015.8 |
| 20260510031008 | 23 | 86 | 0.0 | 0.0 | 0.00 | 0.13 | 0.13 | 85 | 1015.7 |
| 20260510030504 | 23 | 86 | 0.0 | 0.0 | 0.00 | 0.13 | 0.13 | 85 | 1015.8 |
| 20260510030011 | 23 | 86 | 0.0 | 0.0 | 0.00 | 0.13 | 0.13 | 85 | 1015.7 |
| 20260510025503 | 23 | 86 | 0.0 | 0.0 | 0.00 | 0.13 | 0.13 | 85 | 1015.6 |
| 20260510025004 | 23 | 86 | 0.0 | 0.0 | 0.00 | 0.13 | 0.13 | 85 | 1015.6 |
| 20260510024516 | 23 | 86 | 0.0 | 0.0 | 0.00 | 0.13 | 0.13 | 85 | 1015.7 |
| 20260510024005 | 23 | 86 | 0.0 | 0.0 | 0.00 | 0.13 | 0.13 | 85 | 1015.7 |
| 20260510023507 | 24 | 86 | 0.0 | 3.2 | 0.00 | 0.13 | 0.13 | 85 | 1015.7 |
| 20260510023021 | 24 | 86 | 0.0 | 3.2 | 0.00 | 0.13 | 0.13 | 85 | 1015.7 |
| 20260510022507 | 24 | 86 | 0.0 | 3.2 | 0.00 | 0.13 | 0.13 | 85 | 1015.6 |
| 20260510022014 | 24 | 86 | 0.0 | 1.6 | 0.00 | 0.13 | 0.13 | 84 | 1015.5 |
| 20260510021558 | 24 | 86 | 0.0 | 0.0 | 0.00 | 0.13 | 0.13 | 84 | 1015.4 |
| 20260510021008 | 24 | 86 | 0.0 | 3.2 | 0.00 | 0.13 | 0.13 | 84 | 1015.4 |
| 20260510020509 | 24 | 86 | 0.0 | 3.2 | 0.00 | 0.13 | 0.13 | 83 | 1015.4 |
| 20260510020028 | 24 | 86 | 0.0 | 0.0 | 0.00 | 0.13 | 0.13 | 83 | 1015.3 |
| 20260510015513 | 24 | 86 | 0.0 | 0.0 | 0.00 | 0.13 | 0.13 | 83 | 1015.3 |
| 20260510015006 | 24 | 86 | 0.0 | 3.2 | 0.00 | 0.13 | 0.13 | 83 | 1015.2 |
| 20260510014526 | 24 | 86 | 0.0 | 3.2 | 0.00 | 0.13 | 0.13 | 83 | 1015.2 |
| 20260510014004 | 24 | 86 | 0.0 | 0.0 | 0.00 | 0.13 | 0.13 | 83 | 1015.1 |
| 20260510013508 | 24 | 86 | 0.0 | 0.0 | 0.00 | 0.13 | 0.13 | 83 | 1015.1 |
| 20260510013020 | 25 | 86 | 0.0 | 0.0 | 0.00 | 0.13 | 0.13 | 83 | 1015.0 |
| 20260510012509 | 25 | 86 | 0.0 | 0.0 | 0.00 | 0.13 | 0.13 | 83 | 1014.7 |
| 20260510012009 | 25 | 86 | 0.0 | 0.0 | 0.00 | 0.13 | 0.13 | 82 | 1014.5 |
| 20260510011522 | 25 | 86 | 0.0 | 0.0 | 0.00 | 0.13 | 0.13 | 82 | 1014.6 |
| 20260510011008 | 25 | 86 | 0.0 | 0.0 | 0.00 | 0.13 | 0.13 | 81 | 1014.6 |
| 20260510010510 | 25 | 86 | 0.0 | 0.0 | 0.00 | 0.13 | 0.13 | 81 | 1014.6 |
| 20260510010035 | 25 | 86 | 0.0 | 0.0 | 0.00 | 0.13 | 0.13 | 82 | 1014.5 |
| 20260510005507 | 25 | 86 | 0.0 | 0.0 | 0.00 | 0.13 | 0.13 | 81 | 1014.5 |
| 20260510005007 | 25 | 86 | 0.0 | 0.0 | 0.00 | 0.13 | 0.13 | 81 | 1014.4 |
| 20260510004528 | 25 | 86 | 0.0 | 3.2 | 0.00 | 0.13 | 0.13 | 81 | 1014.5 |
| 20260510004008 | 25 | 86 | 0.0 | 3.2 | 0.00 | 0.13 | 0.13 | 81 | 1014.5 |
| 20260510003507 | 25 | 346 | 0.0 | 3.2 | 0.00 | 0.13 | 0.13 | 82 | 1014.5 |
| 20260510003019 | 25 | 346 | 0.0 | 3.2 | 0.00 | 0.13 | 0.13 | 82 | 1014.5 |
| 20260510002507 | 25 | 82 | 1.6 | 3.2 | 0.00 | 0.13 | 0.13 | 82 | 1014.4 |
| 20260510002007 | 25 | 38 | 0.0 | 3.2 | 0.00 | 0.13 | 0.13 | 82 | 1014.2 |
| 20260510001523 | 25 | 303 | 0.0 | 3.2 | 0.00 | 0.13 | 0.13 | 83 | 1014.1 |
| 20260510001006 | 25 | 57 | 0.0 | 3.2 | 0.00 | 0.13 | 0.13 | 83 | 1014.2 |
| 20260510000507 | 25 | 360 | 0.0 | 3.2 | 0.00 | 0.13 | 0.13 | 84 | 1014.2 |
| 20260510000028 | 25 | 61 | 0.0 | 3.2 | 0.00 | 0.13 | 0.13 | 84 | 1014.0 |
| 20260509235507 | 25 | 81 | 0.0 | 3.2 | 0.00 | 0.13 | 0.13 | 85 | 1014.0 |
| 20260509235012 | 25 | 59 | 1.6 | 3.2 | 0.00 | 0.13 | 0.13 | 84 | 1013.8 |
| 20260509234528 | 25 | 86 | 0.0 | 3.2 | 0.00 | 0.13 | 0.13 | 84 | 1013.9 |
| 20260509234010 | 25 | 92 | 1.6 | 3.2 | 0.00 | 0.13 | 0.13 | 84 | 1013.8 |
| 20260509233509 | 26 | 146 | 0.0 | 3.2 | 0.00 | 0.13 | 0.13 | 85 | 1013.6 |
| 20260509233033 | 26 | 148 | 0.0 | 3.2 | 0.00 | 0.13 | 0.13 | 84 | 1013.5 |
| 20260509232509 | 26 | 117 | 0.0 | 3.2 | 0.00 | 0.13 | 0.13 | 85 | 1013.8 |
| 20260509232011 | 26 | 122 | 0.0 | 3.2 | 0.00 | 0.13 | 0.13 | 85 | 1013.9 |
| 20260509231522 | 26 | 127 | 0.0 | 3.2 | 0.00 | 0.13 | 0.13 | 84 | 1013.8 |
| 20260509231008 | 26 | 313 | 0.0 | 3.2 | 0.00 | 0.13 | 0.13 | 84 | 1013.8 |
| 20260509230508 | 26 | 321 | 0.0 | 3.2 | 0.00 | 0.13 | 0.13 | 85 | 1013.8 |
| 20260509230034 | 26 | 352 | 0.0 | 3.2 | 0.00 | 0.13 | 0.13 | 84 | 1013.6 |
| 20260509225509 | 26 | 252 | 0.0 | 4.8 | 0.00 | 0.13 | 0.13 | 84 | 1013.6 |
| 20260509225011 | 26 | 346 | 1.6 | 4.8 | 0.00 | 0.13 | 0.13 | 86 | 1013.5 |
| 20260509224525 | 26 | 81 | 0.0 | 3.2 | 0.00 | 0.13 | 0.13 | 86 | 1013.6 |
| 20260509224006 | 26 | 81 | 0.0 | 3.2 | 0.00 | 0.13 | 0.13 | 86 | 1013.5 |
| 20260509223512 | 26 | 273 | 0.0 | 3.2 | 0.00 | 0.13 | 0.13 | 87 | 1013.4 |
| 20260509223027 | 26 | 140 | 0.0 | 3.2 | 0.00 | 0.13 | 0.13 | 86 | 1013.2 |
| 20260509222512 | 26 | 148 | 0.0 | 6.4 | 0.00 | 0.13 | 0.13 | 87 | 1013.2 |
| 20260509222008 | 26 | 240 | 1.6 | 6.4 | 0.00 | 0.13 | 0.13 | 87 | 1013.2 |
| 20260509221528 | 26 | 150 | 0.0 | 3.2 | 0.00 | 0.13 | 0.13 | 87 | 1013.3 |
| 20260509221007 | 26 | 70 | 0.0 | 6.4 | 0.00 | 0.13 | 0.13 | 87 | 1013.3 |
| 20260509220507 | 26 | 84 | 0.0 | 6.4 | 0.00 | 0.13 | 0.13 | 88 | 1013.2 |
| 20260509220026 | 26 | 246 | 0.0 | 6.4 | 0.00 | 0.13 | 0.13 | 88 | 1013.2 |
| 20260509215509 | 26 | 36 | 1.6 | 6.4 | 0.03 | 0.13 | 0.13 | 88 | 1013.2 |
| 20260509215006 | 26 | 81 | 0.0 | 3.2 | 0.08 | 0.13 | 0.13 | 88 | 1013.1 |
| 20260509214526 | 26 | 101 | 0.0 | 3.2 | 0.08 | 0.13 | 0.13 | 88 | 1013.1 |
| 20260509214013 | 26 | 111 | 0.0 | 6.4 | 0.10 | 0.13 | 0.13 | 88 | 1013.0 |
| 20260509213510 | 26 | 82 | 1.6 | 6.4 | 0.13 | 0.13 | 0.13 | 89 | 1012.9 |
| 20260509213031 | 27 | 112 | 0.0 | 3.2 | 0.13 | 0.13 | 0.13 | 89 | 1012.8 |
| 20260509212507 | 27 | 95 | 1.6 | 3.2 | 0.13 | 0.13 | 0.13 | 89 | 1012.8 |
| 20260509212012 | 27 | 352 | 0.0 | 3.2 | 0.13 | 0.13 | 0.13 | 88 | 1012.7 |
| 20260509211528 | 27 | 76 | 0.0 | 3.2 | 0.13 | 0.13 | 0.13 | 88 | 1012.7 |
| 20260509211008 | 27 | 76 | 0.0 | 3.2 | 0.13 | 0.13 | 0.13 | 87 | 1012.7 |
| 20260509210508 | 28 | 76 | 0.0 | 3.2 | 0.13 | 0.13 | 0.13 | 83 | 1012.7 |
| 20260509210028 | 28 | 76 | 0.0 | 3.2 | 0.13 | 0.13 | 0.13 | 81 | 1012.8 |
| 20260509205502 | 29 | 76 | 0.0 | 3.2 | 0.10 | 0.10 | 0.10 | 79 | 1012.8 |
| 20260509205002 | 29 | 77 | 0.0 | 3.2 | 0.05 | 0.05 | 0.05 | 75 | 1012.9 |
| 20260509204507 | 30 | 77 | 0.0 | 3.2 | 0.05 | 0.05 | 0.05 | 72 | 1012.8 |
| 20260509204003 | 30 | 77 | 0.0 | 3.2 | 0.03 | 0.03 | 0.03 | 68 | 1012.7 |
| 20260509203502 | 31 | 68 | 0.0 | 3.2 | 0.00 | 0.00 | 0.00 | 61 | 1012.9 |
| 20260509203017 | 31 | 68 | 0.0 | 3.2 | 0.00 | 0.00 | 0.00 | 62 | 1012.8 |
| 20260509202503 | 31 | 67 | 0.0 | 3.2 | 0.00 | 0.00 | 0.00 | 57 | 1012.8 |
| 20260509202007 | 31 | 177 | 0.0 | 3.2 | 0.00 | 0.00 | 0.00 | 56 | 1012.7 |
| 20260509201516 | 31 | 116 | 0.0 | 3.2 | 0.00 | 0.00 | 0.00 | 56 | 1012.6 |
| 20260509201007 | 31 | 121 | 0.0 | 3.2 | 0.00 | 0.00 | 0.00 | 55 | 1012.5 |
| 20260509200508 | 31 | 339 | 0.0 | 3.2 | 0.00 | 0.00 | 0.00 | 55 | 1012.4 |
| 20260509200020 | 32 | 26 | 0.0 | 3.2 | 0.00 | 0.00 | 0.00 | 54 | 1012.4 |
| 20260509195503 | 32 | 105 | 0.0 | 3.2 | 0.00 | 0.00 | 0.00 | 54 | 1012.5 |
| 20260509195002 | 32 | 83 | 1.6 | 3.2 | 0.00 | 0.00 | 0.00 | 53 | 1012.5 |
| 20260509194509 | 32 | 227 | 0.0 | 4.8 | 0.00 | 0.00 | 0.00 | 51 | 1012.5 |